IQ5KG Weather Reports


Display with metric or nautical units.
time (UTC)temp
F
wind
direction
speed
MPH
gust
MPH
rain 1hr
in
rain 24hr
in
rain mn
in
humidity
%
barometer
mb
20260507231757 55 156 8.0 15.0 0.00 0.00 0.00 77 1014.1
20260507230257 56 156 10.0 18.0 0.00 0.00 0.00 76 1013.8
20260507224758 56 156 9.0 15.0 0.00 0.00 0.00 75 1013.9
20260507223300 56 156 10.0 18.0 0.00 0.00 0.00 73 1014.0
20260507221801 56 156 7.0 13.0 0.00 0.00 0.00 73 1014.1
20260507220300 57 156 10.0 18.0 0.00 0.00 0.00 70 1013.8
20260507214801 59 156 3.0 9.0 0.00 0.00 0.00 67 1013.8
20260507213302 58 156 5.0 9.0 0.00 0.00 0.00 67 1013.9
20260507211804 59 156 3.0 6.0 0.00 0.00 0.00 71 1013.6
20260507210303 59 156 6.0 13.0 0.00 0.00 0.00 71 1013.7
20260507204805 59 156 1.0 3.0 0.00 0.00 0.00 67 1013.9
20260507203305 60 155 8.0 15.0 0.00 0.00 0.00 62 1014.0
20260507201805 60 155 6.0 13.0 0.00 0.00 0.00 64 1013.6
20260507200305 60 156 5.0 9.0 0.00 0.00 0.00 70 1013.8
20260507194806 59 155 8.0 15.0 0.00 0.00 0.00 74 1014.0
20260507193307 60 156 9.0 18.0 0.00 0.00 0.00 75 1013.9
20260507191809 60 158 6.0 15.0 0.00 0.00 0.00 75 1013.9
20260507190246 60 239 5.0 6.0 0.00 0.00 0.00 74 1013.5
20260507184747 60 255 3.0 6.0 0.00 0.00 0.00 72 1013.6
20260507183246 61 251 3.0 9.0 0.00 0.00 0.00 70 1013.8
20260507181746 62 263 3.0 9.0 0.00 0.00 0.00 68 1013.6
20260507180247 63 252 6.0 15.0 0.00 0.00 0.00 65 1013.5
20260507174745 64 246 6.0 13.0 0.00 0.00 0.00 61 1013.6
20260507173245 65 278 6.0 13.0 0.00 0.00 0.00 59 1013.3
20260507171747 66 254 5.0 15.0 0.00 0.00 0.00 57 1013.4
20260507170246 66 238 3.0 13.0 0.00 0.00 0.00 56 1013.3
20260507164746 67 268 2.0 9.0 0.00 0.00 0.00 54 1013.5
20260507163245 68 248 6.0 18.0 0.00 0.00 0.00 53 1013.3
20260507161745 68 282 7.0 15.0 0.00 0.00 0.00 54 1013.3
20260507160244 68 242 7.0 13.0 0.00 0.00 0.00 55 1013.3
20260507154745 68 298 6.0 15.0 0.00 0.00 0.00 56 1013.3
20260507153244 69 238 7.0 13.0 0.00 0.00 0.00 56 1013.3
20260507151743 69 302 9.0 21.0 0.00 0.00 0.00 56 1013.3
20260507150244 70 266 12.0 28.0 0.00 0.00 0.00 54 1013.3
20260507144743 69 262 8.0 18.0 0.00 0.01 0.00 54 1013.4
20260507143243 69 254 10.0 24.0 0.00 0.01 0.00 54 1013.5
20260507141743 69 249 15.0 28.0 0.00 0.01 0.00 54 1013.7
20260507140243 69 245 10.0 30.0 0.00 0.06 0.00 54 1013.6
20260507134743 69 266 12.0 28.0 0.00 0.06 0.00 51 1013.6
20260507133243 70 257 13.0 28.0 0.00 0.06 0.00 52 1013.8
20260507131742 70 277 8.0 24.0 0.00 0.06 0.00 52 1013.9
20260507130242 71 234 5.0 18.0 0.00 0.06 0.00 54 1013.9
20260507124743 71 259 9.0 15.0 0.00 0.06 0.00 49 1013.8
20260507123241 70 234 2.0 6.0 0.00 0.06 0.00 53 1013.9
20260507121741 70 261 10.0 21.0 0.00 0.06 0.00 53 1014.1
20260507120241 70 248 5.0 15.0 0.00 0.06 0.00 52 1014.1
20260507114741 69 267 7.0 15.0 0.00 0.06 0.00 53 1014.2
20260507113240 69 275 8.0 28.0 0.00 0.06 0.00 54 1014.3
20260507111740 68 254 6.0 15.0 0.00 0.06 0.00 60 1014.5
20260507110240 68 269 7.0 21.0 0.00 0.08 0.00 62 1014.3
20260507104739 68 305 10.0 36.0 0.00 0.08 0.00 62 1014.6
20260507103239 67 258 8.0 15.0 0.00 0.08 0.00 64 1014.5
20260507101738 67 246 6.0 13.0 0.00 0.08 0.00 66 1014.8
20260507100238 65 254 5.0 9.0 0.00 0.08 0.00 67 1014.9
20260507094739 66 245 3.0 9.0 0.00 0.08 0.00 69 1014.8
20260507093239 64 240 2.0 6.0 0.00 0.08 0.00 73 1014.8
20260507091739 64 27 6.0 13.0 0.00 0.08 0.00 73 1015.1
20260507090237 63 314 8.0 15.0 0.00 0.08 0.00 74 1015.1
20260507084737 62 313 3.0 9.0 0.00 0.08 0.00 76 1015.4
20260507083238 62 227 5.0 13.0 0.00 0.08 0.00 80 1015.3
20260507081738 60 219 0.0 3.0 0.00 0.08 0.00 84 1015.1
20260507080237 60 20 1.0 6.0 0.00 0.08 0.00 85 1015.2
20260507074739 59 138 3.0 13.0 0.00 0.08 0.00 85 1015.1
20260507073238 59 170 0.0 3.0 0.00 0.08 0.00 85 1015.1
20260507071737 58 175 7.0 13.0 0.00 0.08 0.00 84 1014.7
20260507070237 58 130 1.0 3.0 0.00 0.08 0.00 85 1014.9
20260507064738 59 71 1.0 6.0 0.00 0.08 0.00 86 1014.8
20260507063237 56 72 3.0 6.0 0.00 0.08 0.00 90 1014.7
20260507061738 55 92 2.0 6.0 0.00 0.09 0.00 92 1014.5
20260507060237 54 83 3.0 9.0 0.00 0.09 0.00 94 1014.4
20260507054738 52 49 9.0 15.0 0.00 0.13 0.00 96 1014.0
20260507053238 52 60 6.0 9.0 0.00 0.19 0.00 95 1014.1
20260507051738 51 59 10.0 15.0 0.00 0.28 0.00 96 1014.1
20260507050237 51 52 6.0 13.0 0.00 0.37 0.00 96 1014.0
20260507044737 51 54 6.0 9.0 0.00 0.83 0.00 97 1013.7
20260507043237 52 155 2.0 6.0 0.00 1.22 0.00 97 1013.7
20260507041736 52 157 0.0 0.0 0.00 1.48 0.00 97 1013.5
20260507040237 52 157 1.0 3.0 0.00 1.57 0.00 97 1013.6
20260507034736 52 157 2.0 6.0 0.00 1.57 0.00 96 1013.5
20260507033236 52 157 1.0 3.0 0.00 1.65 0.00 96 1013.4
20260507031736 52 157 0.0 0.0 0.00 1.77 0.00 96 1013.4
20260507030235 52 157 2.0 6.0 0.00 2.03 0.00 97 1013.5
20260507024736 52 156 2.0 6.0 0.00 2.42 0.00 97 1013.4
20260507023237 53 156 6.0 9.0 0.00 2.65 0.00 97 1013.7
20260507021737 52 156 2.0 6.0 0.00 2.74 0.00 97 1013.6
20260507020236 52 156 5.0 9.0 0.00 2.75 0.00 97 1013.6
20260507014736 52 156 7.0 13.0 0.00 2.75 0.00 98 1013.6
20260507013235 53 156 8.0 13.0 0.00 2.79 0.00 97 1013.5
20260507011735 53 156 8.0 13.0 0.00 2.80 0.00 97 1013.6
20260507010236 53 156 10.0 15.0 0.00 3.01 0.00 97 1013.5
20260507004735 53 156 8.0 15.0 0.00 3.12 0.00 98 1013.6
20260507003236 53 156 9.0 15.0 0.00 3.17 0.00 97 1013.4
20260507001736 53 156 13.0 18.0 0.00 3.20 0.00 97 1013.6
20260507000235 53 156 12.0 18.0 0.00 3.30 0.00 97 1013.4
20260506234735 54 156 9.0 15.0 0.00 3.41 0.00 95 1013.6
20260506233236 55 156 6.0 13.0 0.00 3.53 0.00 94 1013.7